View from above orbital plane
|
View from above satellite
|
Ground track
|
The orbit data is extracted from the following two-line orbital elements,
1 37841U 11058D 21057.85870712 .00000313 00000-0 26741-4 0 9992
2 37841 19.9712 249.5160 0011867 158.7078 229.5068 14.10686135484227
Epoch (UTC): | 26 February 2021 20:36:32 |
Eccentricity: | 0.0011867 |
inclination: | 19.9712° |
perigee height: | 848 km |
apogee height: | 865 km |
right ascension of ascending node: | 249.5160° |
argument of perigee: | 158.7078° |
revolutions per day: | 14.10686135 |
mean anomaly at epoch: | 229.5068° |
orbit number at epoch: | 48422 |
The dashed part of the orbit path shows where the satellite is in the earth's shadow,
|
|